SCOUT X-4 DEB, 724

Orbit data source: Space-Track

SCOUT X-4 DEB, 724 is space debris in LEO originally from a launch on Thu, 19 Dec 1963 UTC launched from the Air Force Western Test Range (AFWTR). Debris objects in space refer to the collection of defunct objects orbiting the Earth. Examples of debris include non-operational satellites, rocket bodies, and fragments generated from explosions, collisions, or faulty payload assembly.

Loading next visibility...
Identifier
724, 1963-053E
Orbit
LEO
Last TLE update
11 hours ago
Origin
Manufacturer
Unknown
Mission
Spacecraft
Bus & Motor
Unknown
Mass
Unknown
Launch date (UTC)
1963-12-19 (61 years ago)
Launch vehicle
Unknown
Launch site
Air Force Western Test Range (AFWTR)
Object type
Payload
Rocket body
Debris
Shape & HBR
Unknown
Radar Cross Section
Small (<0.1 m²)

Expand to show TLE details & history

TLE from 11 hours ago
0 SCOUT X-4 DEB
1   724U 63053E   25128.76902847  .00316127  00000-0  59549-2 0  9995
2   724  78.5260 273.4300 0044658  77.0787 283.5430 15.46282835979874
Epoch: 2025-05-08T18:27Z
Definitive object data (Epoch: 2025-05-08T18:27:24.059Z)
Latitude
-0.00002°
Longitude
129.74497°
Altitude
423.598 km
Speed
7.661 km/s
True Right ascension
18h 13m 43s
True Declination
0° 00' 00"
Sunlit
Object was in full shadow at TLE epoch
Visualization TLE readout
Latitude
-35.47109°
Longitude
120.77148°
Altitude
451.256 km
Speed
7.634 km/s
Apparent Right ascension
21h 05m 18s
Apparent Declination
-54° 53' 57"
Sunlit
Object is in full shadow
Visualization observer readout
Local Sidereal Time
13:18:51
Azimuth
131.958° SE
Elevation
-46.263°
Doppler factor
1
Orbital elements
Apogee altitude
455.145 km
Perigee altitude
394.384 km
Semi-major axis
6,802.902 km
Eccentricity
0.0044658
Inclination
78.526°
RAAN
273.43°
Arg. of periapsis
77.0787°
True anomaly
283.04484°
Mean anomaly
283.543°
Eccentric anomaly
283.29399°
Mean motion
3.86814 °/min
BSTAR
0.0059549
Orbital period
93.07 mins
Loading maneuver chart data...
Loading SW <> Apogee altitude chart data...
Loading historical data...
Loading historical data...
Loading historical data...
Loading historical data...
Loading historical data...
Loading historical data...
Loading historical data...

SCOUT X-4 DEB Visibility forecast

Observer location: undefined°, undefined°

Span
Click to sort rows by Start time (UTC) header in descending order
Start Az.
Max El. time (UTC)
Max El. Az.
Max El.
End time (UTC)
End Az.
4 mins2025-05-09 10:07:14.394Z152.605° SSE2025-05-09 10:09:14.394Z100.799° ESE26.043°2025-05-09 10:11:14.394Z44.627° NE
4 mins2025-05-09 21:25:14.394Z332.288° NNW2025-05-09 21:27:14.394Z228.004° WSW39.703°2025-05-09 21:29:14.394Z182.263° SSW
|